This is the latest recevied weather packets stored in our database for station/object K5SVV. If no packets are shown the sender has not sent any weather packets the latest 10 day(s).
| Time | Temp. | Humidity | Pressure | Rain* | Wind** | Luminosity | Snow |
|---|---|---|---|---|---|---|---|
| 1777945213 | 23.33° C | 76% | 1005.8 hPa | 0 mm | - | 0 W/m² | - |
| 1777944909 | 23.33° C | 76% | 1006 hPa | 0 mm | - | 0 W/m² | - |
| 1777944607 | 23.33° C | 75% | 1005.7 hPa | 0 mm | - | 0 W/m² | - |
| 1777944305 | 23.33° C | 75% | 1006 hPa | 0 mm | - | 0 W/m² | - |
| 1777944001 | 23.33° C | 76% | 1005.9 hPa | 0 mm | - | 0 W/m² | - |
| 1777943697 | 23.33° C | 75% | 1005.9 hPa | 0 mm | - | 0 W/m² | - |
| 1777943394 | 23.89° C | 75% | 1006 hPa | 0 mm | - | 0 W/m² | - |
| 1777943090 | 23.89° C | 75% | 1005.8 hPa | 0 mm | - | 3 W/m² | - |
| 1777942786 | 23.89° C | 74% | 1005.4 hPa | 0 mm | - | 6 W/m² | - |
| 1777942483 | 23.89° C | 73% | 1006.1 hPa | 0 mm | - | 8 W/m² | - |
| 1777942181 | 23.89° C | 73% | 1006 hPa | 0 mm | - | 11 W/m² | - |
| 1777941877 | 23.89° C | 73% | 1006 hPa | 0 mm | - | 15 W/m² | - |
| 1777941574 | 23.89° C | 72% | 1006 hPa | 0 mm | - | 20 W/m² | - |
| 1777941271 | 24.44° C | 73% | 1006.1 hPa | 0 mm | - | 25 W/m² | - |
| 1777940967 | 24.44° C | 72% | 1006.2 hPa | 0 mm | - | 27 W/m² | - |
| 1777940664 | 24.44° C | 72% | 1006.2 hPa | 0 mm | - | 39 W/m² | - |
| 1777940362 | 24.44° C | 72% | 1006.2 hPa | 0 mm | - | 48 W/m² | - |
| 1777940059 | 24.44° C | 72% | 1006.3 hPa | 0 mm | - | 64 W/m² | - |
| 1777939756 | 24.44° C | 72% | 1006.4 hPa | 0 mm | - | 74 W/m² | - |
| 1777939455 | 24.44° C | 72% | 1006.5 hPa | 0 mm | - | 80 W/m² | - |
| 1777939151 | 25° C | 71% | 1006.4 hPa | 0 mm | - | 91 W/m² | - |
| 1777938848 | 25° C | 71% | 1006.3 hPa | 0 mm | - | 101 W/m² | - |
| 1777938544 | 25° C | 70% | 1006.3 hPa | 0 mm | - | 93 W/m² | - |
| 1777938242 | 25° C | 70% | 1006.3 hPa | 0 mm | - | 102 W/m² | - |
| 1777937938 | 25° C | 70% | 1006.5 hPa | 0 mm | - | 131 W/m² | - |
* Rain latest hour (hover to see other rain measurements)
** Current wind speed in m/s (hover to see current wind gust speed)